Weather History for Greensboro, GA

Change the Weather History Date:

Monday, March 17, 2014

  Actual Average (KDBN) Record (KDBN)
Temperature  
Mean Temperature 45 °F -  
Max Temperature 57 °F 68 °F 89 °F (1945)
Min Temperature 33 °F 42 °F 27 °F (1988)
Degree Days  
Heating Degree Days 20    
Moisture  
Dew Point 41 °F    
Average Humidity 97    
Maximum Humidity 100    
Minimum Humidity 93    
Precipitation  
Precipitation 0.00 in - - ()
Sea Level Pressure  
Sea Level Pressure 29.73 in    
Wind  
Wind Speed 3 mph (NE)    
Max Wind Speed 8 mph    
Max Gust Speed -    
Visibility 6 miles    
Events Rain    
Averages and records for this station are not official NWS values.
T = Trace of Precipitation, MM = Missing Value Source: NWS Daily Summary

Daily Weather History Graph

Daily Weather History Graph

Search for Another Location

Airport:

Trip Planner

Search our weather history database for the weather conditions in past years. The results will help you decide how hot, cold, wet, or windy it might be!

Date:

Astronomy

Mar. 17, 2014 Rise Set
Actual Time 7:40 AM EDT 7:41 PM EDT
Civil Twilight 7:15 AM EDT 8:06 PM EDT
Nautical Twilight 6:46 AM EDT 8:35 PM EDT
Astronomical Twilight 6:17 AM EDT 9:04 PM EDT
Moon 8:52 PM EDT (3/17) 7:59 AM EDT (3/17)
Length of Visible Light 12h 51m
Length of Day
12h 01m
Full, 99% of the Moon is Illuminated
Mar 17
Full
Mar 23
Last Quarter
Mar 30
New
Apr 7
First Quarter
Apr 15
Full

Hourly Weather History & Observations

Time (EDT) Temp. Windchill Dew Point Humidity Pressure Visibility Wind Dir Wind Speed Gust Speed Precip Events Conditions
12:15 AM 57.2 °F - 55.4 °F 94% 29.70 in 10.0 mi SSE 4.6 mph - N/A   Scattered Clouds
12:35 AM 55.4 °F - 55.4 °F 100% 29.70 in 10.0 mi SSE 3.5 mph - N/A   Clear
12:55 AM 55.4 °F - 53.6 °F 94% 29.69 in 10.0 mi SSE 3.5 mph - N/A   Clear
1:15 AM 55.4 °F - 53.6 °F 94% 29.68 in 10.0 mi South 3.5 mph - N/A   Mostly Cloudy
1:35 AM 55.4 °F - 53.6 °F 94% 29.68 in 10.0 mi Calm Calm - N/A   Overcast
2:15 AM 55.4 °F - 53.6 °F 94% 29.69 in 10.0 mi South 3.5 mph - N/A   Overcast
2:35 AM 55.4 °F - 53.6 °F 94% 29.68 in 10.0 mi Calm Calm - N/A   Overcast
2:55 AM 55.4 °F - 53.6 °F 94% 29.68 in 10.0 mi Calm Calm - N/A   Overcast
3:15 AM 55.4 °F - 53.6 °F 94% 29.67 in 10.0 mi Calm Calm - N/A   Overcast
3:35 AM 55.4 °F - 53.6 °F 94% 29.67 in 10.0 mi Calm Calm - N/A   Mostly Cloudy
3:55 AM 51.8 °F - 50.0 °F 94% 29.67 in 7.0 mi North 3.5 mph - N/A   Mostly Cloudy
4:15 AM 48.2 °F - 46.4 °F 93% 29.67 in 4.0 mi North 4.6 mph - N/A   Overcast
4:35 AM 46.4 °F 45.2 °F 46.4 °F 100% 29.67 in 4.0 mi NNE 3.5 mph - N/A   Overcast
4:55 AM 46.4 °F - 44.6 °F 93% 29.65 in 2.5 mi Calm Calm - N/A   Overcast
5:15 AM 46.4 °F - 44.6 °F 93% 29.65 in 3.0 mi Calm Calm - N/A   Overcast
5:35 AM 44.6 °F - 44.6 °F 100% 29.67 in 2.0 mi Calm Calm - N/A   Overcast
5:55 AM 44.6 °F - 44.6 °F 100% 29.69 in 1.5 mi Calm Calm - N/A   Overcast
6:15 AM 44.6 °F - 42.8 °F 93% 29.68 in 1.5 mi Calm Calm - N/A   Overcast
6:35 AM 42.8 °F - 42.8 °F 100% 29.68 in 1.5 mi Calm Calm - N/A   Overcast
6:55 AM 42.8 °F 41.1 °F 42.8 °F 100% 29.67 in 1.2 mi NE 3.5 mph - N/A   Overcast
7:15 AM 42.8 °F 39.3 °F 41.0 °F 93% 29.65 in 1.5 mi NE 5.8 mph - N/A   Overcast
7:35 AM 42.8 °F 40.1 °F 41.0 °F 93% 29.67 in 2.5 mi NE 4.6 mph - N/A   Drizzle
7:55 AM 42.8 °F 40.1 °F 41.0 °F 93% 29.69 in 3.0 mi NE 4.6 mph - N/A   Light Drizzle
8:15 AM 42.8 °F 40.1 °F 41.0 °F 93% 29.68 in 2.0 mi NE 4.6 mph - N/A   Drizzle
8:35 AM 41.0 °F 39.0 °F 41.0 °F 100% 29.72 in 2.0 mi NE 3.5 mph - N/A   Drizzle
8:55 AM 41.0 °F 38.0 °F 41.0 °F 100% 29.72 in 2.0 mi NE 4.6 mph - N/A   Light Drizzle
9:15 AM 41.0 °F - 41.0 °F 100% 29.72 in 2.0 mi Calm Calm - N/A   Light Drizzle
9:35 AM 41.0 °F 39.0 °F 41.0 °F 100% 29.73 in 1.8 mi NNE 3.5 mph - N/A   Heavy Drizzle
9:55 AM 42.8 °F - 41.0 °F 93% 29.72 in 2.5 mi Calm Calm - N/A   Light Drizzle
10:15 AM 42.8 °F 39.3 °F 41.0 °F 93% 29.72 in 5.0 mi NE 5.8 mph - N/A   Overcast
10:35 AM 41.0 °F 39.0 °F 41.0 °F 100% 29.75 in 7.0 mi NE 3.5 mph - N/A   Overcast
10:55 AM 41.0 °F 38.0 °F 41.0 °F 100% 29.75 in 5.0 mi NNE 4.6 mph - N/A   Drizzle
11:15 AM 41.0 °F 39.0 °F 41.0 °F 100% 29.76 in 1.8 mi NE 3.5 mph - N/A   Heavy Drizzle
11:35 AM 41.0 °F - 41.0 °F 100% 29.77 in 2.0 mi Calm Calm - N/A Rain Light Rain
11:55 AM 41.0 °F - 41.0 °F 100% 29.76 in 4.0 mi Calm Calm - N/A Rain Rain
12:15 PM 41.0 °F 39.0 °F 39.2 °F 93% 29.75 in 4.0 mi NE 3.5 mph - N/A Rain Rain
12:35 PM 39.2 °F 37.0 °F 39.2 °F 100% 29.76 in 7.0 mi NNE 3.5 mph - N/A   Drizzle
12:55 PM 39.2 °F 37.0 °F 39.2 °F 100% 29.75 in 7.0 mi NE 3.5 mph - N/A Rain Light Rain
1:15 PM 39.2 °F 34.2 °F 37.4 °F 93% 29.76 in 5.0 mi NE 6.9 mph - N/A Rain Light Rain
1:35 PM 39.2 °F 37.0 °F 37.4 °F 93% 29.77 in 4.0 mi North 3.5 mph - N/A Rain Rain
1:55 PM 39.2 °F - 37.4 °F 93% 29.76 in 3.0 mi Calm Calm - N/A Rain Rain
2:15 PM 37.4 °F 33.8 °F 37.4 °F 100% 29.76 in 3.0 mi NNE 4.6 mph - N/A Rain Heavy Rain
2:35 PM 39.2 °F 37.0 °F 37.4 °F 93% 29.74 in 2.0 mi NE 3.5 mph - N/A Rain Light Rain
2:55 PM 37.4 °F 33.8 °F 37.4 °F 100% 29.73 in 7.0 mi North 4.6 mph - N/A Rain Light Rain
3:15 PM 37.4 °F - 37.4 °F 100% 29.72 in 10.0 mi Calm Calm - N/A Rain Light Rain
3:35 PM 37.4 °F 32.8 °F 35.6 °F 93% 29.71 in 5.0 mi NNE 5.8 mph - N/A Rain Rain
3:55 PM 37.4 °F 33.8 °F 35.6 °F 93% 29.73 in 3.0 mi NE 4.6 mph - N/A Rain Heavy Rain
4:15 PM 37.4 °F 34.9 °F 35.6 °F 93% 29.73 in 2.5 mi NNE 3.5 mph - N/A Rain Rain
4:35 PM 37.4 °F - 35.6 °F 93% 29.72 in 3.0 mi Calm Calm - N/A Rain Light Rain
4:55 PM 37.4 °F - 35.6 °F 93% 29.73 in 7.0 mi Calm Calm - N/A Rain Rain
5:15 PM 37.4 °F 34.9 °F 35.6 °F 93% 29.74 in 4.0 mi North 3.5 mph - N/A Rain Heavy Rain
5:35 PM 35.6 °F - 35.6 °F 100% 29.74 in 1.2 mi Calm Calm - N/A Rain Light Rain
5:55 PM 35.6 °F 30.7 °F 35.6 °F 100% 29.74 in 7.0 mi NE 5.8 mph - N/A Rain Light Rain
6:15 PM 35.6 °F 31.7 °F 35.6 °F 100% 29.75 in 5.0 mi NNE 4.6 mph - N/A Rain Rain
6:35 PM 35.6 °F 32.8 °F 35.6 °F 100% 29.75 in 10.0 mi NE 3.5 mph - N/A   Drizzle
6:55 PM 35.6 °F - 35.6 °F 100% 29.76 in 10.0 mi Calm Calm - N/A   Drizzle
7:15 PM 35.6 °F 32.8 °F 35.6 °F 100% 29.77 in 10.0 mi NNE 3.5 mph - N/A   Light Drizzle
7:35 PM 35.6 °F 30.7 °F 35.6 °F 100% 29.77 in 10.0 mi NNE 5.8 mph - N/A Rain Rain
7:55 PM 35.6 °F 31.7 °F 33.8 °F 93% 29.78 in 10.0 mi NNE 4.6 mph - N/A Rain Light Rain
8:15 PM 35.6 °F 29.2 °F 33.8 °F 93% 29.78 in 10.0 mi NE 8.1 mph - N/A   Drizzle
8:35 PM 35.6 °F 31.7 °F 33.8 °F 93% 29.79 in 10.0 mi NNE 4.6 mph - N/A   Overcast
8:55 PM 35.6 °F 30.7 °F 33.8 °F 93% 29.79 in 10.0 mi ENE 5.8 mph - N/A   Drizzle
9:15 PM 35.6 °F 30.7 °F 33.8 °F 93% 29.80 in 7.0 mi NE 5.8 mph - N/A Rain Light Rain
9:35 PM 33.8 °F 28.6 °F 33.8 °F 100% 29.82 in 7.0 mi NE 5.8 mph - N/A Rain Rain
9:55 PM 33.8 °F 28.6 °F 33.8 °F 100% 29.83 in 2.5 mi NE 5.8 mph - N/A Rain Rain
10:15 PM 33.8 °F 30.8 °F 33.8 °F 100% 29.84 in 4.0 mi NNE 3.5 mph - N/A Rain Rain
10:35 PM 33.8 °F - 33.8 °F 100% 29.83 in 10.0 mi Calm Calm - N/A Rain Light Rain
10:55 PM 33.8 °F 29.6 °F 33.8 °F 100% 29.84 in 10.0 mi ENE 4.6 mph - N/A   Drizzle
11:35 PM 33.8 °F 30.8 °F 33.8 °F 100% 29.85 in 10.0 mi NNE 3.5 mph - N/A   Overcast
11:55 PM 33.8 °F - 33.8 °F 100% 29.85 in 10.0 mi Calm Calm - N/A   Overcast